Torna al catalogo

CZ-11 DEB

AttivoSSO
NORAD 41846·DEBRIS·🇨🇳 China

Lanciato Nov 9, 2016 da Jiuquan Satellite Launch Center

Loading…

Prossimi Passaggi (prossime 24 ore)

TLE

AggiornatoSource: Space-Track

Epoca: Sep 14, 2026, 12:00 UTC

1 41846U 16066F   26257.50054524  .00003667  00000-0  45900-3 0  9992
2 41846  98.4216 348.5996 0304514 188.1305 171.4896 14.55266212518039

Traccia CZ-11 DEB in tempo reale con AllMySat

Download on the App Store